STARLINK-2461, 48428

Orbit data source: Space-Track

STARLINK-2461, 48428 is a payload satellite owned by SpaceX/Seattle (US) in LEO that was launched on Sun, 09 May 2021 UTC via an FALCON 9 launch vehicle from the Air Force Eastern Test Range (AFETR). Payload-class satellites include a variety of spacecraft equipped with specific instruments for various scientific and technological missions. These include communications satellites like Starlink; space stations such as the ISS; scientific satellites like the Hubble; Earth observation satellites from companies like Planet Labs, Umbra, and HawkEye 360; GPS; miniature CubeSats for education and research; and military/defense satellites.

Loading next visibility...
Identifier
48428, 2021-040A
Orbit
LEO
Country
Flag of USUS
Related business
Manufacturer
SpaceX/Seattle
Mission
Operational Commercial Communications
Bus & Motor
STARLINK, Unknown motor
Mass
260 kg wet, ~248 kg dry
Launch date (UTC)
2021-05-09 (5 years ago)
Launch vehicle
FALCON 9
Launch site
Air Force Eastern Test Range (AFETR)
Object type
Payload
Rocket body
Debris
Shape & HBR
Box + 1 Pan, 10.1 m
Radar Cross Section
13.562 m², Large (>1 m²)

Expand to show TLE details & history
Last TLE update: 2 days ago

TLE from 2 days ago
0 STARLINK-2461
1 48428U 21040A   26171.39031419  .00001482  00000-0  59526-4 0  9996
2 48428  53.1599  60.9479 0001350 101.4213 258.6940 15.31701280282415
Epoch: 2026-06-20T09:22Z
TLE epoch observation values (Epoch: 2026-06-20T09:22:03.146Z)
Latitude
-0.00001°
Longitude
11.82916°
Altitude
471.818 km
Speed
7.631 km/s
True Right ascension
04h 03m 47s
True Declination
0° 00' 00"
Sunlit
Object was in daylight at epoch
Visualization orbit readout
Latitude
Unknown
Longitude
Unknown
Altitude
Unknown
Speed
Unknown
Apparent Right ascension
Unknown
Apparent Declination
Unknown
Sunlit
N/A
Visualization observer readout
Local Sidereal Time
21:24:34
Azimuth
Unknown
Elevation
Unknown
Doppler factor
Unknown
Orbital elements
Apogee altitude
471.917 km
Perigee altitude
470.068 km
Semi-major axis
6,849.13 km
Eccentricity
0.00014
Inclination
53.1599°
RAAN
60.9479°
Arg. of periapsis
101.4213°
True anomaly
258.67883°
Mean anomaly
258.694°
Eccentric anomaly
258.68642°
Mean motion
3.82904 °/min
Orbital period
94.02 mins
BSTAR
0.000059526
Loading maneuver chart data...
Computing Atmospheric mass density...

Documentation

Showing up to 5 results
|